Other Public Products
Issued by NWS Charleston, SC

Current Version | Previous Version | Text Only | Print | Product List | Glossary Off
Versions: 1 2 3 4 5 6 7 8 9 10 11 12 13 14 15 16 17 18 19 20 21 22 23 24 25 26 27 28 29 30 31 32 33 34 35 36 37 38 39 40 41 42 43 44 45 46 47 48 49 50

681
FPUS82 KCHS 181938
OPUCHS

TEST...KCHS/KSAV Gateway Observations...TEST
National Weather Service Charleston SC
300 PM EDT MON SEP 18 2017

NOTE: "fair" indicates few or no clouds below 12,000 feet with no
significant weather and/or obstructions to visibility.

SCZ050-WAZ558-NCZ071-TXZ119-213-PAZ071-DCZ001-FLZ074-172-MI076-
NYZ176-178-MAZ016-IL014-TNZ027-NJZ106-GAZ044-MD014-182000-

...Gateway Observations for Charleston International...

CITY           SKY/WX    TMP DP  RH WIND       PRES   REMARKS
Chas Airport   MOSUNNY   87  64  46 N15       29.96F
Seattle        MOSUNNY   58  49  72 SW12      29.78F
Charlotte      PTSUNNY   85  67  54 N7        30.03F
Dallas DFW     MOSUNNY   92  63  38 VRB3      29.98F HX  93
Dallas Love    MOSUNNY   91  62  37 S6        29.98F HX  91
Philladelphia  MOSUNNY   79  67  66 NE8       30.06F
Wash National  CLOUDY    75  68  78 E9        30.07S
Baltimore      CLOUDY    71  71 100 N6        30.07F FOG
Miami          MOSUNNY   89  71  55 NW9       29.90F HX  95
Detroit        CLOUDY    74  68  81 NE10      30.06F
Newark         CLOUDY    73  66  78 NE10      30.09F
Laguardia      CLOUDY    72  67  84 NE13      30.10S
J F K          CLOUDY    73  67  81 N10       30.10S
Boston Logan   CLOUDY    66  65  96 E9        30.17F FOG
Ft. Lauderdale MOSUNNY   90  74  59 NW8       29.89F HX  99
Chicago O`Hare MOSUNNY   76  51  41 NE12      30.06F
Chicago Midway MOSUNNY   74  54  49 E14G22    30.06F
Houston Bush   CLOUDY    86  77  74 CALM      29.98F THUNDER HX  97
Houston Hobby  CLOUDY    85  74  69 S10       29.98F HX  92
Nashville      MOSUNNY   86  64  47 CALM      30.03F
Atlanta        MOSUNNY   86  62  44 NW7       30.04F

$$

GAZ044-118-TXZ119-213-NCZ071-DCZ001-MDZ014-506-PAZ021-071-NJZ106-
NYZ176-178-MAZ106-OHZ011-021-055-MIZ076-KYZ091-ILZ014-INZ047-
MNZ060-ONZ431-182000-

...Gateway Observations for Savannah International...

CITY           SKY/WX    TMP DP  RH WIND       PRES   REMARKS
Savannah Arpt  MOSUNNY   89  64  43 N13G18    29.97F HX  90
Atlanta        MOSUNNY   86  62  44 NW7       30.04F
Charlotte      PTSUNNY   85  67  54 N7        30.03F
Dallas DFW     MOSUNNY   92  63  38 VRB3      29.98F HX  93
Houston Bush   CLOUDY    86  77  74 CALM      29.98F THUNDER HX  97
Wash National  CLOUDY    75  68  78 E9        30.07S
Wash Dulles    MOSUNNY   80  65  59 NE9       30.06F
Baltimore      CLOUDY    71  71 100 N6        30.07F FOG
Philadelphia   MOSUNNY   79  67  66 NE8       30.06F
Newark         CLOUDY    73  66  78 NE10      30.09F
Laguardia      CLOUDY    72  67  84 NE13      30.10S
J F K          CLOUDY    73  67  81 N10       30.10S
Boston         CLOUDY    66  65  96 E9        30.17F FOG
Pittsburg      PTSUNNY   82  63  52 CALM      30.07F
Akron          CLOUDY    84  58  40 VRB5      30.07F
Cleveland      MOSUNNY   85  60  42 S5        30.06F
Cincinnati     PTSUNNY   83  67  58 W5        30.04F
Columbus       PTSUNNY   83  59  44 SW5       30.04F
Detroit        CLOUDY    74  68  81 NE10      30.06F
Chicago O`Hare MOSUNNY   76  51  41 NE12      30.06F
Minneapolis    LGT RAIN  55  54  96 SE10      30.04F
Indianapolis   PTSUNNY   83  69  62 S5        30.02F
Toronto Canada PTSUNNY   79  66  65 S7        30.04F

$$




USA.gov is the U.S. government's official web portal to all federal, state and local government web resources and services.